SWA451 KSRQ-KMCO

Flight info

Callsign SWA451
Flight time 0h 30m
Altitude 9000
Route PRICY MINEE
Aircraft B738/M-SADE2E3GIJ4RWZ/LB1D1

Departure

Time 2026-05-06 11:12
Airport Sarasota Bradenton International Airport (KSRQ)

Arrival

Time 2026-05-06 11:42
Airport Orlando International Airport (KMCO)
Time Latitude Longitude Altitude Speed Heading
2026-05-06 10:36 27.39032 -82.55424 29 ft 0 kts 158°
2026-05-06 11:05 27.39052 -82.55432 28 ft 4 kts 161°
2026-05-06 11:05 27.39076 -82.55442 29 ft 4 kts 155°
2026-05-06 11:05 27.39092 -82.55456 28 ft 4 kts 92°
2026-05-06 11:05 27.39082 -82.55473 26 ft 4 kts 32°
2026-05-06 11:06 27.39059 -82.55488 29 ft 3 kts 36°
2026-05-06 11:06 27.39057 -82.55490 26 ft 2 kts 37°
2026-05-06 11:08 27.39076 -82.55475 29 ft 9 kts 37°
2026-05-06 11:09 27.39119 -82.55395 30 ft 14 kts 88°
2026-05-06 11:09 27.39122 -82.55287 30 ft 15 kts 83°
2026-05-06 11:09 27.39088 -82.55164 29 ft 19 kts 135°
2026-05-06 11:09 27.38987 -82.55050 30 ft 23 kts 134°
2026-05-06 11:10 27.38871 -82.54919 30 ft 24 kts 134°
2026-05-06 11:10 27.38760 -82.54791 29 ft 22 kts 134°
2026-05-06 11:10 27.38657 -82.54673 30 ft 20 kts 134°
2026-05-06 11:10 27.38587 -82.54560 30 ft 16 kts 86°
2026-05-06 11:11 27.38672 -82.54517 29 ft 17 kts 328°
2026-05-06 11:11 27.38869 -82.54740 30 ft 78 kts 315°
2026-05-06 11:11 27.39432 -82.55385 28 ft 150 kts 314°
2026-05-06 11:11 27.40260 -82.56331 462 ft 175 kts 315°
2026-05-06 11:12 27.40998 -82.57393 1417 ft 178 kts 290°
2026-05-06 11:12 27.41033 -82.58811 1849 ft 196 kts 258°
2026-05-06 11:12 27.40787 -82.60437 2105 ft 223 kts 253°
2026-05-06 11:12 27.39949 -82.61937 2318 ft 235 kts 213°
2026-05-06 11:13 27.38421 -82.62480 2803 ft 235 kts 174°
2026-05-06 11:13 27.36935 -82.61814 3484 ft 234 kts 137°
2026-05-06 11:13 27.36134 -82.60261 4177 ft 240 kts 101°
2026-05-06 11:13 27.36219 -82.58335 4640 ft 261 kts 73°
2026-05-06 11:14 27.37216 -82.56542 5191 ft 275 kts 46°
2026-05-06 11:14 27.38643 -82.55124 6077 ft 281 kts 39°
2026-05-06 11:14 27.40205 -82.53774 7018 ft 286 kts 36°
2026-05-06 11:14 27.41806 -82.52431 7976 ft 288 kts 35°
2026-05-06 11:15 27.43428 -82.51069 8681 ft 293 kts 35°
2026-05-06 11:15 27.45054 -82.49690 8992 ft 294 kts 34°
2026-05-06 11:15 27.46702 -82.48283 8996 ft 299 kts 35°
2026-05-06 11:15 27.48348 -82.46864 8999 ft 296 kts 35°
2026-05-06 11:16 27.49970 -82.45458 8999 ft 293 kts 35°
2026-05-06 11:16 27.51580 -82.44056 9003 ft 291 kts 35°
2026-05-06 11:16 27.53177 -82.42663 9007 ft 290 kts 35°
2026-05-06 11:16 27.54774 -82.41269 9016 ft 290 kts 35°
2026-05-06 11:17 27.56368 -82.39875 9018 ft 291 kts 35°
2026-05-06 11:17 27.57974 -82.38470 9022 ft 292 kts 35°
2026-05-06 11:17 27.59582 -82.37062 9013 ft 293 kts 35°
2026-05-06 11:17 27.61196 -82.35649 9003 ft 294 kts 36°
2026-05-06 11:18 27.62814 -82.34230 9007 ft 295 kts 36°
2026-05-06 11:18 27.64434 -82.32811 9008 ft 295 kts 36°
2026-05-06 11:18 27.66053 -82.31390 9010 ft 295 kts 36°
2026-05-06 11:18 27.67673 -82.29968 9000 ft 295 kts 36°
2026-05-06 11:19 27.69293 -82.28545 9004 ft 295 kts 36°
2026-05-06 11:19 27.70913 -82.27121 9012 ft 294 kts 36°
2026-05-06 11:19 27.72526 -82.25703 9014 ft 294 kts 36°
2026-05-06 11:19 27.74142 -82.24282 9004 ft 294 kts 36°
2026-05-06 11:20 27.75754 -82.22863 9008 ft 293 kts 36°
2026-05-06 11:20 27.76819 -82.21926 9014 ft 293 kts 36°
2026-05-06 11:20 27.78423 -82.20516 9022 ft 293 kts 36°
2026-05-06 11:20 27.80030 -82.19101 9009 ft 293 kts 36°
2026-05-06 11:21 27.81638 -82.17684 9017 ft 292 kts 36°
2026-05-06 11:21 27.83240 -82.16273 9025 ft 292 kts 36°
2026-05-06 11:21 27.85365 -82.14399 9034 ft 292 kts 36°
2026-05-06 11:21 27.86969 -82.12985 9020 ft 293 kts 36°
2026-05-06 11:22 27.88055 -82.12027 9026 ft 293 kts 36°
2026-05-06 11:22 27.89660 -82.10611 9030 ft 292 kts 36°
2026-05-06 11:22 27.91261 -82.09199 9028 ft 292 kts 36°
2026-05-06 11:22 27.92862 -82.07784 9016 ft 293 kts 36°
2026-05-06 11:23 27.94447 -82.06383 9019 ft 292 kts 36°
2026-05-06 11:23 27.96050 -82.04966 9020 ft 292 kts 36°
2026-05-06 11:23 27.97651 -82.03551 9021 ft 292 kts 36°
2026-05-06 11:23 27.99251 -82.02136 9017 ft 292 kts 36°
2026-05-06 11:24 28.00846 -82.00723 9022 ft 291 kts 36°
2026-05-06 11:24 28.02442 -81.99311 9019 ft 291 kts 36°
2026-05-06 11:24 28.04033 -81.97891 9027 ft 291 kts 39°
2026-05-06 11:24 28.05372 -81.96168 9017 ft 294 kts 55°
2026-05-06 11:25 28.06277 -81.94094 9021 ft 295 kts 69°
2026-05-06 11:25 28.06920 -81.91885 9023 ft 295 kts 71°
2026-05-06 11:25 28.07527 -81.89663 9038 ft 295 kts 71°
2026-05-06 11:25 28.08135 -81.87438 9021 ft 296 kts 71°
2026-05-06 11:26 28.08751 -81.85210 9030 ft 296 kts 71°
2026-05-06 11:26 28.09374 -81.82986 9030 ft 296 kts 71°
2026-05-06 11:26 28.10000 -81.80766 9032 ft 296 kts 71°
2026-05-06 11:26 28.10629 -81.78542 9018 ft 297 kts 71°
2026-05-06 11:27 28.11259 -81.76316 9028 ft 296 kts 71°
2026-05-06 11:27 28.11938 -81.74117 9024 ft 295 kts 64°
2026-05-06 11:27 28.12881 -81.72054 9035 ft 294 kts 59°
2026-05-06 11:27 28.13878 -81.70045 9013 ft 291 kts 59°
2026-05-06 11:28 28.14865 -81.68072 9018 ft 285 kts 59°
2026-05-06 11:28 28.15830 -81.66135 9017 ft 280 kts 59°
2026-05-06 11:28 28.16786 -81.64203 9035 ft 282 kts 59°
2026-05-06 11:28 28.17748 -81.62252 8881 ft 287 kts 59°
2026-05-06 11:29 28.18710 -81.60294 8678 ft 289 kts 59°
2026-05-06 11:29 28.19685 -81.58305 8402 ft 288 kts 59°
2026-05-06 11:29 28.20647 -81.56340 8110 ft 281 kts 59°
2026-05-06 11:29 28.21582 -81.54428 7819 ft 276 kts 60°
2026-05-06 11:30 28.22511 -81.52527 7542 ft 275 kts 60°
2026-05-06 11:30 28.23436 -81.50631 7265 ft 274 kts 60°
2026-05-06 11:30 28.24357 -81.48743 6981 ft 274 kts 60°
2026-05-06 11:30 28.25278 -81.46854 6678 ft 273 kts 60°
2026-05-06 11:31 28.26467 -81.45202 6360 ft 272 kts 35°
2026-05-06 11:31 28.28141 -81.44261 6077 ft 268 kts 18°
2026-05-06 11:31 28.29920 -81.43616 5780 ft 268 kts 16°
2026-05-06 11:31 28.31703 -81.42996 5475 ft 267 kts 16°
2026-05-06 11:32 28.33479 -81.42375 5183 ft 266 kts 17°
2026-05-06 11:32 28.35245 -81.41774 4890 ft 264 kts 11°
2026-05-06 11:32 28.37045 -81.41633 4753 ft 255 kts 359°
2026-05-06 11:32 28.38796 -81.41661 4613 ft 248 kts 358°
2026-05-06 11:33 28.40508 -81.41705 4518 ft 244 kts 358°
2026-05-06 11:33 28.42204 -81.41753 4426 ft 244 kts 358°
2026-05-06 11:33 28.43893 -81.41806 4324 ft 240 kts 358°
2026-05-06 11:33 28.45528 -81.41860 4253 ft 230 kts 358°
2026-05-06 11:34 28.47112 -81.41915 4084 ft 226 kts 358°
2026-05-06 11:34 28.48673 -81.41971 3952 ft 224 kts 358°
2026-05-06 11:34 28.50229 -81.42029 3835 ft 223 kts 358°
2026-05-06 11:34 28.51763 -81.42089 3744 ft 223 kts 358°
2026-05-06 11:35 28.53306 -81.42152 3690 ft 220 kts 358°
2026-05-06 11:35 28.54859 -81.42216 3547 ft 224 kts 358°
2026-05-06 11:35 28.56415 -81.42279 3326 ft 228 kts 358°
2026-05-06 11:35 28.58002 -81.42344 3093 ft 227 kts 358°
2026-05-06 11:36 28.59565 -81.42413 3042 ft 224 kts 358°
2026-05-06 11:36 28.61107 -81.42245 2987 ft 224 kts 25°
2026-05-06 11:36 28.62207 -81.41068 3002 ft 221 kts 66°
2026-05-06 11:36 28.62482 -81.39367 3016 ft 221 kts 88°
2026-05-06 11:37 28.62539 -81.37614 3002 ft 221 kts 91°
2026-05-06 11:37 28.62069 -81.35998 3015 ft 215 kts 127°
2026-05-06 11:37 28.61170 -81.34696 3002 ft 203 kts 127°
2026-05-06 11:37 28.60264 -81.33565 2964 ft 186 kts 151°
2026-05-06 11:38 28.59086 -81.33222 2903 ft 176 kts 171°
2026-05-06 11:38 28.57871 -81.33031 2637 ft 173 kts 172°
2026-05-06 11:38 28.56691 -81.32880 2402 ft 169 kts 175°
2026-05-06 11:38 28.55532 -81.32822 2178 ft 166 kts 178°
2026-05-06 11:39 28.54382 -81.32802 1971 ft 165 kts 178°
2026-05-06 11:39 28.53248 -81.32788 1783 ft 158 kts 178°
2026-05-06 11:39 28.52186 -81.32776 1539 ft 147 kts 178°
2026-05-06 11:39 28.51182 -81.32767 1354 ft 143 kts 178°
2026-05-06 11:40 28.50177 -81.32756 1168 ft 146 kts 177°
2026-05-06 11:40 28.49159 -81.32745 988 ft 145 kts 177°
2026-05-06 11:40 28.48147 -81.32735 791 ft 145 kts 178°
2026-05-06 11:40 28.47127 -81.32723 593 ft 148 kts 178°
2026-05-06 11:41 28.46096 -81.32710 392 ft 149 kts 179°
2026-05-06 11:41 28.45061 -81.32700 194 ft 148 kts 179°
2026-05-06 11:41 28.44063 -81.32690 98 ft 132 kts 179°
2026-05-06 11:41 28.43311 -81.32683 100 ft 62 kts 179°
2026-05-06 11:42 28.43097 -81.32622 98 ft 19 kts 138°
2026-05-06 11:42 28.43056 -81.32490 97 ft 18 kts 88°
2026-05-06 11:42 28.43059 -81.32355 97 ft 17 kts 91°
2026-05-06 11:42 28.43058 -81.32217 96 ft 20 kts 89°
2026-05-06 11:43 28.43084 -81.32058 97 ft 21 kts 53°
2026-05-06 11:43 28.43222 -81.31995 99 ft 27 kts 357°
2026-05-06 11:43 28.43428 -81.31998 99 ft 31 kts 359°
2026-05-06 11:44 28.43835 -81.32004 99 ft 27 kts 359°
2026-05-06 11:44 28.43961 -81.31982 98 ft 15 kts 58°
2026-05-06 11:44 28.43928 -81.31873 98 ft 18 kts 110°
2026-05-06 11:44 28.43922 -81.31708 104 ft 23 kts 90°
2026-05-06 11:45 28.43923 -81.31508 104 ft 27 kts 89°
2026-05-06 11:45 28.43931 -81.31297 106 ft 25 kts 86°
2026-05-06 11:45 28.43940 -81.31107 107 ft 24 kts 87°
2026-05-06 11:45 28.43942 -81.30906 107 ft 27 kts 89°
2026-05-06 11:46 28.43931 -81.30692 108 ft 27 kts 94°
2026-05-06 11:46 28.43918 -81.30478 105 ft 27 kts 93°
2026-05-06 11:46 28.43908 -81.30272 102 ft 25 kts 91°
2026-05-06 11:46 28.43900 -81.30082 99 ft 22 kts 92°
2026-05-06 11:47 28.43870 -81.29958 97 ft 15 kts 153°
2026-05-06 11:47 28.43772 -81.29927 96 ft 15 kts 144°
2026-05-06 11:47 28.43675 -81.29890 95 ft 15 kts 176°
2026-05-06 11:47 28.43577 -81.29888 94 ft 13 kts 180°
2026-05-06 11:48 28.43528 -81.29947 94 ft 11 kts 258°
2026-05-06 11:48 28.43514 -81.30018 94 ft 7 kts 257°
2026-05-06 11:48 28.43510 -81.30039 96 ft 0 kts 257°